Location: Baia Mare
(47.6567°N, 23.5850°E)
Time: 14:12:46
(UTC+03:00)

ISS - Pass Details

Date: 18 July 2019
Orbit: 409 x 418 km, 51.6° (Epoch: 21 July)

Event Time Altitude Azimuth Distance (km) Brightness Sun altitude
Rises 04:07:19 0° 293° (WNW) 2,347 -0.1 -12.9°
Reaches altitude 10° 04:09:27 10° 288° (WNW) 1,481 -1.2 -12.7°
Maximum altitude 04:12:41 52° 211° (SSW) 516 -3.7 -12.4°
Drops below altitude 10° 04:15:54 10° 134° (SE) 1,470 -1.0 -12.0°
Sets 04:18:00 0° 129° (SE) 2,327 0.0 -11.8°
